AF0GV-15 Weather Reports


time (UTC)temp
C
wind
direction
speed
KPH
gust
KPH
rain 1hr
cm
rain 24hr
cm
rain mn
cm
humidity
%
barometer
mb
20260906175103 35 360 0.0 3.2 0.00 0.00 0.00 59 1014.7
20260906171926 35 360 0.0 0.0 0.00 0.00 0.00 58 1015.2
20260906164747 33 360 0.0 1.6 0.00 0.00 0.00 64 1015.5
20260906161609 33 360 0.0 0.0 0.00 0.00 0.00 64 1015.7
20260906160020 32 360 0.0 0.0 0.00 0.00 0.00 69 1015.8
20260906154430 31 355 1.6 4.8 0.00 0.00 0.00 70 1015.6
20260906152843 31 123 1.6 6.4 0.00 0.00 0.00 70 1015.3
20260906151253 30 360 0.0 3.2 0.00 0.00 0.00 71 1015.4
20260906144116 29 360 0.0 1.6 0.00 0.00 0.00 74 1015.6
20260906142526 28 360 0.0 3.2 0.00 0.00 0.00 77 1015.8
20260906140937 28 360 0.0 1.6 0.00 0.00 0.00 79 1015.8
20260906135350 27 360 0.0 1.6 0.00 0.00 0.00 83 1015.6
20260906132210 24 360 0.0 0.0 0.00 0.00 0.00 96 1015.4
20260906123443 21 360 0.0 0.0 0.00 0.00 0.00 96 1014.8
20260906121854 21 360 0.0 0.0 0.00 0.00 0.00 96 1014.8
20260906120305 21 360 0.0 0.0 0.00 0.00 0.00 96 1014.4
20260906114715 21 360 0.0 0.0 0.00 0.00 0.00 96 1014.5
20260906113129 21 360 0.0 0.0 0.00 0.00 0.00 96 1014.3
20260906111537 21 360 0.0 0.0 0.00 0.00 0.00 96 1014.1
20260906105948 21 360 0.0 0.0 0.00 0.00 0.00 96 1014.0
20260906104402 22 360 0.0 0.0 0.00 0.00 0.00 95 1014.0
20260906102810 22 360 0.0 0.0 0.00 0.00 0.00 96 1014.0
20260906101222 22 360 0.0 0.0 0.00 0.00 0.00 95 1014.0
20260906095632 22 360 0.0 0.0 0.00 0.00 0.00 95 1014.0
20260906094043 22 360 0.0 0.0 0.00 0.00 0.00 95 1013.8
20260906092456 22 360 0.0 0.0 0.00 0.00 0.00 94 1013.7
20260906090906 22 360 0.0 0.0 0.00 0.00 0.00 95 1013.5
20260906085317 22 360 0.0 0.0 0.00 0.00 0.00 94 1013.4
20260906083729 22 360 0.0 0.0 0.00 0.00 0.00 94 1013.3
20260906082140 22 360 0.0 0.0 0.00 0.00 0.00 94 1013.2
20260906075004 23 360 0.0 0.0 0.00 0.00 0.00 94 1013.3
20260906071823 23 360 0.0 0.0 0.00 0.00 0.00 93 1013.3
20260906070234 23 360 0.0 0.0 0.00 0.00 0.00 93 1013.5
20260906064644 23 360 0.0 0.0 0.00 0.00 0.00 93 1013.6
20260906063056 23 360 0.0 0.0 0.00 0.00 0.00 92 1013.7
20260906061508 23 360 0.0 0.0 0.00 0.00 0.00 92 1013.7
20260906055918 23 360 0.0 0.0 0.00 0.00 0.00 93 1013.8
20260906054329 24 360 0.0 0.0 0.00 0.00 0.00 92 1013.8
20260906052739 24 360 0.0 0.0 0.00 0.00 0.00 92 1013.8
20260906051151 24 360 0.0 0.0 0.00 0.00 0.00 91 1013.8
20260906045602 25 360 0.0 0.0 0.00 0.00 0.00 90 1013.7
20260906044012 25 360 0.0 0.0 0.00 0.00 0.00 90 1013.7
20260906042424 25 360 0.0 0.0 0.00 0.00 0.00 89 1013.8
20260906040835 25 360 0.0 0.0 0.00 0.00 0.00 89 1013.7
20260906035245 25 360 0.0 0.0 0.00 0.00 0.00 88 1013.5
20260906033657 26 360 0.0 0.0 0.00 0.00 0.00 88 1013.4
20260906030518 26 360 0.0 0.0 0.00 0.00 0.00 86 1013.0
20260906024930 27 360 0.0 0.0 0.00 0.00 0.00 85 1012.8
20260906023343 27 360 0.0 0.0 0.00 0.00 0.00 82 1012.6
20260906021751 27 360 0.0 0.0 0.00 0.00 0.00 81 1012.5
20260906020203 28 360 0.0 0.0 0.00 0.00 0.00 80 1012.2
20260906014614 28 360 0.0 0.0 0.00 0.00 0.00 80 1012.1
20260906013027 29 360 0.0 0.0 0.00 0.00 0.00 78 1012.0
20260906011437 30 360 0.0 0.0 0.00 0.00 0.00 77 1011.8
20260906005846 30 360 0.0 0.0 0.00 0.00 0.00 75 1011.8
20260906004258 31 360 0.0 0.0 0.00 0.00 0.00 72 1011.8
20260906002709 32 360 0.0 0.0 0.00 0.00 0.00 70 1011.8
20260906001120 33 360 0.0 0.0 0.00 0.00 0.00 66 1011.7
20260905235531 33 360 0.0 0.0 0.00 0.00 0.00 62 1011.7
20260905233941 35 360 0.0 0.0 0.00 0.00 0.00 56 1011.7
20260905232353 35 360 0.0 0.0 0.00 0.00 0.00 52 1011.6
20260905230803 35 360 0.0 0.0 0.00 0.00 0.00 52 1011.6
20260905225215 35 360 0.0 3.2 0.00 0.00 0.00 50 1011.6
20260905223626 36 360 0.0 0.0 0.00 0.00 0.00 50 1011.6
20260905222037 36 360 0.0 0.0 0.00 0.00 0.00 51 1011.8
20260905220448 36 360 0.0 0.0 0.00 0.00 0.00 50 1011.7
20260905214859 37 360 0.0 1.6 0.00 0.00 0.00 48 1011.9
20260905213309 37 360 0.0 1.6 0.00 0.00 0.00 49 1012.1
20260905211720 37 360 0.0 0.0 0.00 0.00 0.00 46 1012.2
20260905210134 37 360 0.0 0.0 0.00 0.00 0.00 47 1012.5
20260905204543 36 360 0.0 3.2 0.00 0.00 0.00 50 1012.6
20260905202954 36 360 0.0 0.0 0.00 0.00 0.00 55 1012.8
20260905201405 36 360 0.0 0.0 0.00 0.00 0.00 54 1013.0
20260905195817 35 360 0.0 6.4 0.00 0.00 0.00 55 1013.2
20260905194226 35 44 1.6 4.8 0.00 0.00 0.00 55 1013.5
20260905192638 36 360 0.0 0.0 0.00 0.00 0.00 53 1013.5
20260905191049 36 360 0.0 0.0 0.00 0.00 0.00 52 1013.6
20260905185459 36 360 0.0 0.0 0.00 0.00 0.00 49 1013.6
20260905183911 36 360 0.0 0.0 0.00 0.00 0.00 52 1013.9
20260905182322 36 360 0.0 1.6 0.00 0.00 0.00 49 1014.2
20260905180733 36 360 0.0 1.6 0.00 0.00 0.00 49 1014.3